Volver al catálogo

CZ-6A DEB

ActivoSSO
NORAD 56619·DEBRIS·🇨🇳 China

Lanzado Nov 11, 2022 desde Taiyuan Satellite Launch Center

Loading…

Próximos Pases (próximas 24 horas)

TLE

ActualizadoSource: Space-Track

Época: Sep 14, 2026, 17:40 UTC

1 56619U 22151AET 26257.73664850  .00000148  00000-0  71005-4 0  9999
2 56619  98.5726 258.2381 0075790 139.7483 220.9345 14.30557971177358

Sigue CZ-6A DEB en tiempo real con AllMySat

Download on the App Store